Temp
18 18 17 17 17 17 17 17 17 16 16 16 15 14 14 13 13 14 14 13 13 13 13 13 13 13 12 12 12 12 12 12 12 12 12 11 10 10 10 10 9 9
17 17 17 17 16 16 16 17 17 16 16 15 15 14 14 13 14 14 13 13 13 13 13 13 13 12 12 12 12 12 12 12 11 11 12 11 10 9 9 9 9 9
17 17 17 17 17 16 16 16 16 16 16 15 15 14 14 13 14 13 13 13 13 12 12 13 13 12 12 12 12 12 12 12 11 11 11 10 9 9 9 9 9 8
16 17 17 16 16 16 16 16 16 16 16 15 14 14 13 13 13 13 13 13 12 12 12 12 12 12 11 11 11 11 11 11 11 11 11 10 9 9 8 8 8 8
16 16 16 16 16 16 16 16 16 16 16 15 14 14 13 13 13 13 13 13 12 12 12 12 12 11 11 11 11 11 11 11 11 11 10 9 8 8 8 8 8 8
16 16 16 16 16 16 16 16 16 16 15 15 14 13 13 13 13 13 13 12 12 12 12 12 12 11 11 11 11 11 11 11 11 11 10 8 8 8 8 8 8 8
16 15 15 15 16 16 16 16 16 16 15 15 14 14 13 13 13 13 13 12 12 12 12 12 12 11 11 11 11 11 11 11 10 10 9 8 8 8 8 8 8 8
15 15 14 15 16 16 16 16 15 15 15 15 14 14 13 13 13 13 12 12 12 12 12 12 11 11 11 11 10 10 10 10 10 10 9 8 8 8 8 8 8 8
14 14 14 15 15 16 16 15 15 15 15 15 14 14 13 13 13 13 12 12 12 12 12 11 11 11 11 10 10 10 10 10 10 9 8 8 8 8 8 8 8 8
14 14 14 15 16 16 16 15 15 15 15 15 14 14 13 13 13 13 12 12 12 12 12 11 11 11 11 10 10 10 10 10 10 9 8 8 8 8 8 8 8 8
14 14 15 15 16 16 15 15 15 15 15 15 14 14 13 13 13 13 12 12 12 12 11 11 11 11 10 10 10 10 10 10 9 9 8 8 8 8 8 8 8 8
14 14 15 15 15 15 15 15 15 15 15 14 14 14 13 13 13 13 12 12 12 12 12 11 11 11 10 10 10 10 10 10 9 9 8 8 8 8 8 8 8 8
14 14 15 15 15 15 15 15 15 15 15 14 14 14 13 13 13 12 12 12 12 12 12 11 11 11 10 10 10 10 9 9 9 9 9 8 8 8 8 8 8 8
14 14 15 15 15 15 15 15 15 15 14 14 14 14 13 13 13 12 12 12 12 12 11 11 11 10 10 10 10 9 9 9 9 9 9 9 9 9 8 8 8 8
14 15 15 15 15 14 15 15 14 14 14 13 13 13 13 13 13 13 12 12 12 11 11 11 11 11 10 10 10 9 9 9 9 9 9 9 9 9 9 9 8 8
14 14 14 14 14 14 14 14 14 14 13 13 13 13 13 13 13 13 12 12 12 11 11 11 11 11 10 10 10 10 9 9 9 9 9 9 9 9 9 9 9 9
14 14 14 14 14 14 14 14 14 13 13 13 13 13 13 13 13 13 12 12 12 11 11 11 11 11 10 10 10 10 9 9 9 9 9 9 9 9 9 9 9 9
13 13 13 14 14 14 14 14 14 13 13 13 12 12 13 12 13 13 12 12 12 11 11 11 11 10 10 10 10 9 9 9 9 9 9 9 9 9 9 9 9 9
13 13 13 13 14 14 14 14 13 13 12 12 12 12 12 12 12 12 12 12 12 11 11 11 10 10 10 9 9 9 9 9 9 9 9 9 9 9 9 9 9 9
13 13 13 13 13 13 13 13 13 12 11 11 11 11 12 12 12 12 12 12 11 11 11 11 10 10 9 9 9 9 9 9 9 9 9 9 9 9 9 9 9 9
13 13 13 13 13 13 13 13 12 12 11 11 11 11 12 12 12 12 12 11 11 11 11 11 10 10 9 9 9 9 9 9 9 9 9 9 9 9 9 9 9 9
13 13 13 12 12 12 12 12 12 11 11 11 11 12 12 12 12 12 12 11 11 11 11 10 10 9 9 9 9 9 8 8 8 9 9 9 9 9 9 9 9 9
13 13 12 12 12 12 12 12 12 11 11 11 12 12 12 12 12 12 11 11 11 11 10 10 10 9 9 9 8 8 8 8 8 8 9 9 9 9 9 9 9 9
13 12 13 13 12 12 12 11 11 11 11 12 12 12 12 12 12 11 11 11 11 10 10 10 10 9 9 8 8 8 8 8 8 8 8 8 8 9 9 9 9 9
12 12 12 12 11 11 12 12 11 11 12 12 12 12 12 11 11 10 10 10 10 10 10 10 9 9 8 8 8 8 8 8 8 8 8 8 8 8 8 9 9 9
12 13 12 11 12 12 12 11 12 12 12 11 11 11 11 11 10 10 10 10 10 10 9 9 9 9 8 8 8 8 8 8 8 8 8 8 8 8 8 8 8 9
Height
808 812 814 816 819 821 824 826 828 831 834 836 838 839 840 842 843 844 845 846 847 847 847 847 847 847 847 847 847 847 846 847 847 847 847 847 848 848 848 848 848 848
810 812 814 816 819 821 824 826 828 830 833 835 837 839 840 842 843 844 845 846 847 847 848 848 848 848 848 848 848 848 847 848 848 848 849 849 850 850 850 850 850 850
810 812 813 814 817 821 824 826 828 830 833 835 837 838 840 842 843 844 846 846 847 848 848 849 849 849 849 849 849 849 849 849 849 849 850 850 851 851 851 852 851 851
810 811 812 813 815 820 824 826 828 830 832 834 836 838 840 842 843 845 846 847 848 849 849 849 850 850 850 850 850 850 850 850 850 850 851 852 853 853 853 853 853 852
809 810 810 812 815 820 823 824 827 829 832 834 836 838 840 841 843 845 846 847 848 849 850 850 850 850 851 851 851 851 851 851 851 851 852 853 854 855 855 855 854 854
807 808 809 811 814 819 822 823 826 829 831 834 835 837 840 841 843 845 846 848 848 849 850 850 851 851 851 851 851 851 851 851 852 852 853 855 856 856 856 856 856 856
805 807 809 812 814 818 821 822 825 828 831 833 835 837 839 841 843 845 846 848 849 850 850 851 851 851 852 852 852 852 852 852 853 854 855 856 857 858 858 858 858 858
803 806 809 812 814 817 820 822 825 828 830 833 835 837 839 841 843 845 846 848 849 850 851 851 852 852 852 853 853 853 853 853 854 855 856 858 859 859 859 859 860 860
803 806 809 812 814 816 819 821 824 828 830 832 834 836 838 841 843 845 846 848 849 850 851 852 852 853 853 853 854 854 854 854 855 856 857 859 860 861 861 861 861 861
802 806 809 811 813 815 818 821 824 827 829 831 833 835 838 840 843 845 846 848 849 850 851 852 852 853 853 854 854 855 855 856 856 857 859 860 861 862 862 862 862 863
801 804 807 810 812 814 817 820 823 826 828 830 832 835 837 840 842 845 846 847 849 850 851 852 852 853 853 854 855 856 856 856 857 858 860 861 862 862 863 863 864 864
800 803 806 809 811 814 816 819 822 825 827 829 832 834 837 840 842 844 846 847 848 849 851 852 853 853 854 854 855 856 857 857 858 859 861 862 863 863 864 864 865 865
799 802 805 808 810 813 816 819 821 824 826 829 831 833 836 839 841 843 845 847 848 849 850 852 852 853 854 854 855 857 857 858 859 860 861 862 863 864 865 865 866 866
799 802 804 807 809 812 815 818 820 823 825 828 830 833 835 837 840 842 844 846 847 848 850 851 852 853 854 854 856 857 858 859 860 861 862 863 864 865 866 866 867 867
799 801 804 806 809 812 815 817 820 823 825 827 830 832 834 837 839 841 843 845 846 848 850 851 852 853 854 854 856 857 858 859 860 862 863 864 865 866 866 867 868 868
798 801 803 806 809 812 815 817 820 822 825 827 829 831 834 836 838 840 842 844 846 847 849 851 852 853 854 855 855 857 858 859 860 862 863 864 865 866 867 868 868 869
797 800 803 806 808 811 814 817 819 821 824 826 828 830 833 835 838 840 842 843 845 847 848 850 851 852 853 855 856 857 858 859 860 862 863 864 865 866 867 868 869 869
796 799 802 805 808 810 813 815 818 820 822 825 827 829 832 834 837 839 841 843 844 846 848 849 850 852 853 854 855 856 857 859 860 861 863 864 865 866 867 868 869 869
795 798 801 804 807 809 812 814 817 819 821 824 826 828 831 834 836 838 840 842 843 845 846 848 849 851 852 853 855 856 857 858 860 861 863 864 865 866 867 868 869 869
795 797 800 803 806 809 811 813 816 818 820 823 825 828 830 833 835 837 839 841 842 844 845 847 848 850 851 852 854 855 856 858 859 861 862 864 865 866 867 868 868 869
794 797 800 802 805 808 810 812 815 817 819 822 824 827 829 832 834 836 838 839 841 842 844 845 847 849 850 851 852 854 855 857 859 860 862 863 865 866 867 867 868 868
794 796 799 802 804 807 809 811 813 815 817 820 822 825 828 830 832 834 836 838 839 841 843 845 846 848 849 850 851 853 855 857 859 860 862 863 864 865 866 867 867 868
792 795 797 800 803 805 807 809 812 814 816 819 821 824 826 829 830 832 834 836 838 840 842 844 846 847 848 849 850 852 854 856 858 860 861 863 864 865 866 866 867 867
790 793 795 798 801 803 806 808 810 813 815 818 820 823 826 828 829 831 833 835 837 839 841 843 845 846 848 849 850 851 853 855 857 859 861 862 863 864 865 866 866 867
787 791 794 797 800 802 804 806 809 812 815 817 820 823 825 827 829 830 832 834 836 838 840 842 844 845 846 848 849 850 852 854 857 859 860 862 863 864 865 865 866 866
785 788 792 795 798 801 802 804 807 810 813 816 819 822 824 826 828 830 832 834 836 838 840 841 843 844 845 847 848 850 851 854 856 858 859 861 862 863 864 865 865 866
Wind_Speed
22 23 24 26 26 25 24 23 20 19 17 15 13 11 10 9 11 12 10 9 7 7 8 7 7 6 7 8 8 10 12 13 14 14 13 14 14 14 15 15 15 15
22 23 24 25 25 24 24 22 20 18 16 14 12 11 11 12 13 12 10 9 9 9 9 9 8 7 7 8 9 11 13 14 15 15 14 15 15 15 16 16 16 15
23 23 24 24 25 25 24 22 19 17 15 13 12 11 12 14 14 12 11 10 10 11 10 10 8 7 8 9 10 12 14 15 15 15 14 15 15 16 16 16 16 16
21 23 24 24 25 26 25 22 20 18 16 13 13 13 15 16 15 13 12 12 11 12 11 10 9 8 9 9 11 13 14 15 15 14 14 16 16 16 16 16 16 16
20 24 25 24 25 27 25 23 21 19 16 14 15 16 17 17 16 14 14 13 13 13 12 11 9 9 9 10 11 14 15 16 15 14 15 17 17 17 17 16 17 17
21 24 26 25 26 27 25 23 21 19 17 16 17 18 18 17 16 15 15 14 14 13 12 11 10 10 10 11 13 15 16 16 16 15 17 18 17 18 18 17 18 17
23 24 24 26 28 27 25 24 21 19 18 17 19 19 18 18 16 16 16 15 15 14 13 12 11 11 11 12 14 16 16 17 16 17 18 18 17 18 19 18 17 16
24 23 23 26 28 27 26 24 22 20 19 18 19 19 19 18 17 17 17 16 15 14 13 12 12 12 12 13 15 16 17 18 18 18 19 18 16 17 17 17 16 15
23 23 23 26 29 28 26 25 23 22 20 20 20 20 20 18 18 18 18 17 16 15 14 13 13 13 13 14 15 16 18 19 19 19 19 17 16 16 15 15 16 15
23 25 25 28 29 28 27 26 25 24 22 21 21 21 20 19 18 19 19 18 17 15 14 14 14 14 13 14 15 16 18 19 19 20 19 16 15 15 15 14 14 14
21 24 27 30 29 28 29 27 26 25 23 22 22 21 21 21 21 20 20 19 18 16 15 14 14 14 14 14 15 16 18 19 20 20 19 17 16 16 15 14 14 14
20 24 28 30 30 30 30 28 27 25 24 24 23 22 23 23 22 22 21 19 18 17 16 15 14 14 14 15 16 17 18 19 20 20 20 19 17 16 15 14 13 13
20 24 29 30 30 31 30 28 27 26 26 26 24 23 24 24 23 23 22 21 19 18 16 15 15 15 14 14 16 17 18 19 20 21 20 19 18 17 15 14 12 12
20 25 31 31 31 31 29 27 27 27 27 27 26 25 25 24 24 24 23 22 20 19 17 16 15 15 14 15 16 17 19 19 20 20 19 19 18 16 15 13 12 11
25 29 31 31 31 31 29 28 27 27 28 28 27 25 25 24 24 23 23 23 22 20 19 17 16 15 13 14 15 18 19 19 20 19 18 18 16 15 14 13 11 11
30 32 32 32 31 30 29 28 27 27 28 28 27 26 25 25 24 23 23 23 23 22 20 18 16 14 12 12 13 16 19 19 19 18 17 16 15 14 13 12 11 11
33 33 33 33 31 30 29 28 27 27 28 28 28 27 26 26 25 24 23 23 23 23 21 19 17 14 13 12 11 14 18 19 18 18 17 15 14 13 12 11 11 11
35 34 34 32 31 29 28 26 26 27 27 28 28 28 28 27 26 24 24 23 23 23 22 20 18 15 14 13 12 12 16 18 18 17 16 15 14 12 12 12 11 10
36 35 33 32 30 28 26 25 25 26 27 28 29 28 28 28 26 25 24 23 24 24 23 21 19 17 15 14 12 12 14 17 17 16 16 16 14 13 12 11 11 10
36 35 33 32 30 28 26 25 25 27 27 28 28 28 29 28 26 25 24 24 24 23 23 21 20 19 17 15 13 12 13 16 17 15 16 16 15 13 12 11 11 11
34 34 33 32 30 28 27 26 26 27 28 28 28 28 28 27 26 25 24 24 24 23 23 22 21 19 18 15 14 12 13 16 17 15 15 15 15 14 13 12 10 10
34 34 33 32 31 29 27 27 27 28 28 29 29 29 28 27 26 25 25 24 24 23 23 22 21 20 18 16 14 13 14 17 17 16 15 16 15 14 14 12 11 10
35 35 34 33 31 29 28 28 29 29 29 29 29 28 28 27 26 25 25 24 24 24 23 22 21 20 17 16 14 14 16 19 19 17 17 16 15 14 14 12 11 10
37 35 34 33 32 30 29 29 30 30 29 28 28 27 27 26 26 25 24 24 24 24 23 22 21 20 18 16 15 15 17 20 19 17 17 17 15 14 13 12 11 11
38 36 34 33 32 29 29 30 31 30 29 28 26 26 26 26 25 24 24 24 24 23 22 21 20 20 18 16 16 16 18 20 18 16 17 17 15 14 14 13 12 11
38 38 35 33 31 28 29 31 31 31 29 28 27 25 25 25 24 23 24 24 23 22 21 20 20 20 19 17 17 17 19 19 18 16 16 17 15 14 14 13 12 11
Wind_Direction
181 181 181 181 181 179 176 173 171 171 171 172 170 163 161 156 151 157 158 151 148 134 120 111 105 107 108 109 107 102 98 95 92 88 83 83 83 84 84 84 83 79
182 182 181 181 181 179 178 175 171 169 168 169 169 166 163 158 156 160 159 152 146 132 120 111 108 111 115 117 111 105 103 99 96 92 87 87 87 87 87 86 84 80
184 185 186 184 182 180 180 176 169 166 165 165 168 167 161 159 159 160 159 155 146 131 120 111 111 118 119 119 114 109 107 102 98 95 90 90 91 90 89 87 84 80
185 188 189 186 181 180 180 174 166 164 165 165 169 168 161 158 159 159 158 156 146 133 123 116 116 120 120 120 117 112 109 104 100 97 94 94 96 95 91 87 85 82
184 189 190 185 180 180 178 172 166 165 166 167 169 167 162 159 159 160 160 158 149 137 127 122 119 120 123 124 121 116 110 106 102 99 98 99 100 99 94 89 87 84
185 188 189 184 180 180 177 171 168 166 167 168 168 168 165 162 162 164 164 161 153 142 131 126 123 122 126 128 125 119 113 108 105 102 102 103 103 101 97 91 87 83
186 187 186 183 180 179 176 171 169 168 168 168 168 169 167 165 166 167 167 164 156 146 137 129 125 126 130 131 127 121 115 111 108 107 106 105 105 102 98 93 88 83
184 183 183 183 179 177 174 171 170 169 168 168 169 169 168 169 170 169 169 167 159 150 142 134 129 129 133 134 130 123 118 114 111 111 111 109 107 102 99 96 90 86
179 180 181 181 178 176 174 172 171 170 170 171 172 170 170 173 173 171 171 169 163 155 147 139 134 133 135 136 133 126 122 119 116 116 115 113 110 106 102 98 94 89
174 177 179 179 178 177 175 174 173 171 173 175 174 172 172 175 174 172 173 172 167 160 152 145 138 136 137 137 136 132 126 122 121 120 119 116 113 110 106 101 97 93
169 173 177 179 179 178 177 176 174 174 176 178 177 175 174 175 175 174 175 175 171 165 157 149 143 139 138 139 140 138 132 128 125 124 124 121 117 113 108 103 99 95
168 170 177 180 180 179 178 177 176 176 178 180 180 179 177 177 177 176 178 178 175 170 163 154 148 143 139 140 144 143 138 133 130 130 129 127 122 116 111 105 100 97
169 173 179 182 182 180 179 178 178 179 181 182 184 182 179 179 180 179 180 181 178 174 169 161 154 149 143 142 148 149 145 139 136 135 134 132 128 122 116 109 102 99
170 177 182 183 181 179 179 179 180 182 183 184 185 183 182 182 183 182 182 183 181 177 173 168 160 153 147 147 152 155 151 146 141 139 139 137 134 130 124 115 107 102
175 180 181 180 178 176 177 178 180 183 185 186 185 185 185 186 186 186 184 184 182 179 176 172 166 159 153 152 156 160 158 153 148 145 143 142 139 137 132 124 117 112
177 178 177 175 175 174 175 177 181 184 186 186 186 186 188 188 187 187 186 185 182 181 179 175 171 165 158 155 159 164 164 160 157 154 151 150 147 145 143 137 130 126
174 174 174 173 173 174 176 179 184 186 187 187 187 187 188 188 186 186 186 185 184 183 181 178 175 170 162 159 161 167 168 165 165 165 163 161 159 156 156 152 143 138
172 171 171 172 173 175 178 182 186 187 188 187 186 186 185 184 185 186 186 186 185 185 183 180 178 174 169 164 163 169 173 170 170 171 170 169 167 164 165 164 157 151
170 170 170 172 175 177 179 183 186 186 187 187 185 183 182 182 184 186 187 187 187 186 185 182 180 177 174 171 167 169 176 176 174 175 174 172 169 166 166 167 165 161
171 172 173 173 175 178 179 182 184 184 185 184 182 180 180 181 184 186 188 188 188 188 186 183 182 180 177 176 173 171 177 180 179 177 177 177 174 171 171 170 169 167
173 174 173 173 174 176 178 180 183 183 182 181 180 180 181 183 186 189 190 190 189 189 187 184 183 182 179 179 179 177 179 183 182 180 180 181 180 178 178 176 174 173
175 175 172 171 173 175 177 180 182 182 182 181 180 180 183 185 188 191 193 191 190 189 188 185 184 183 182 183 185 182 182 184 184 183 183 184 185 185 185 184 181 180
177 176 173 173 175 177 179 182 182 181 180 180 180 180 183 187 190 192 193 192 190 189 188 186 184 185 185 187 189 187 183 182 182 182 183 184 185 185 185 187 188 189
177 176 176 177 177 178 180 181 181 180 180 180 181 182 185 189 192 192 191 192 191 190 190 189 188 187 188 191 193 189 184 182 181 180 183 185 185 186 188 191 192 192
176 176 178 176 175 179 184 185 182 181 180 182 184 186 188 190 192 191 189 189 190 190 192 193 192 189 188 191 192 187 183 182 181 180 184 186 186 186 186 188 189 188
175 178 178 177 179 185 189 186 183 181 180 181 184 187 189 189 189 189 188 187 189 192 193 196 196 190 185 186 187 184 184 185 182 180 181 182 179 177 177 178 180 181